Location: ???????
(56.2167°N, 38.0500°E)
Time: 02:34:36
(UTC+00:00)

ERS-1 Rocket - Pass Details

Date: 19 May 2025
Orbit: 747 x 752 km, 98.2° (Epoch: 13 June)

Event Time Altitude Azimuth Distance (km) Brightness Sun altitude
Rises 18:25:31 0° 179° (S) 3,195 5.7 -5.0°
Reaches altitude 10° 18:27:52 10° 185° (S) 2,275 5.0 -5.3°
Maximum altitude 18:32:44 50° 260° (W) 957 3.8 -5.7°
Drops below altitude 10° 18:37:38 10° 336° (NNW) 2,290 7.0 -6.1°
Sets 18:40:01 0° 342° (NNW) 3,219 7.8 -6.3°
